sat.trackr.live / text

‹ back to catalog

STARLINK-35538

NORAD 66475 · 2025-262V

PAYLOAD ACTIVE UNKNOWN

§ Identity

Operator
Country
US
Launch date
2025-11-15
Launch site
AFETR
Launch vehicle
Mass (kg)
RCS (m²)

Purposes: comms

External: N2YO · Heavens-Above · Gunter

§ Orbital elements

Epoch: 2026-05-24T22:24:42.217344Z

Period
94.27 min
Inclination
43.0031°
Eccentricity
0.0001166
Mean motion
15.27581066 rev/d
Perigee alt
482.2 km
Apogee alt
483.8 km
Semi-major
6,861.2 km
B*
3.3513e-4
RAAN
225.8662°
Arg perigee
281.7270°
Mean anomaly
78.3451°
Rev number
3,056

§ Raw data

STARLINK-355381 66475U 25262V   26144.93382196  .00008972  00000+0  33513-3 0  99962 66475  43.0031 225.8662 0001166 281.7270  78.3451 15.27581066 30566

JSON: /api/v1/satellites/66475 · /tle

For live sub-satellite position, see the globe view (requires WebGL).

§ Visibility from observer

Set your observer location to see the next 7 days of passes ≥ 10°. The values pass through the URL so the page stays shareable.

No JS? Fill the form by hand. The geolocation button needs JavaScript.